This is the latest recevied weather packets stored in our database for station/object KG5MMT-12. If no packets are shown the sender has not sent any weather packets the latest 10 day(s).
| Time | Temp. | Humidity | Pressure | Rain* | Wind** | Luminosity | Snow |
|---|---|---|---|---|---|---|---|
| 1788368645 | 25.56° C | 34% | 0 hPa | 0 mm | - | - | - |
| 1788368345 | 25.56° C | 33% | 0 hPa | 0 mm | - | - | - |
| 1788368045 | 25.56° C | 33% | 0 hPa | 0 mm | - | - | - |
| 1788367745 | 25° C | 34% | 0 hPa | 0 mm | - | - | - |
| 1788367445 | 25° C | 35% | 0 hPa | 0 mm | - | - | - |
| 1788367145 | 24.44° C | 35% | 0 hPa | 0 mm | - | - | - |
| 1788366845 | 24.44° C | 35% | 0 hPa | 0 mm | - | - | - |
| 1788366545 | 24.44° C | 33% | 0 hPa | 0 mm | - | - | - |
| 1788366245 | 24.44° C | 37% | 0 hPa | 0 mm | - | - | - |
| 1788365945 | 24.44° C | 33% | 0 hPa | 0 mm | - | - | - |
| 1788365645 | 24.44° C | 34% | 0 hPa | 0 mm | - | - | - |
| 1788365345 | 24.44° C | 36% | 0 hPa | 0 mm | - | - | - |
| 1788365045 | 24.44° C | 37% | 0 hPa | 0 mm | - | - | - |
| 1788364745 | 23.89° C | 38% | 0 hPa | 0 mm | - | - | - |
| 1788364445 | 23.89° C | 38% | 0 hPa | 0 mm | - | - | - |
| 1788364145 | 23.89° C | 37% | 0 hPa | 0 mm | - | - | - |
| 1788363845 | 23.89° C | 39% | 0 hPa | 0 mm | - | - | - |
| 1788363545 | 23.33° C | 37% | 0 hPa | 0 mm | - | - | - |
| 1788363251 | 23.33° C | 42% | 0 hPa | 0 mm | - | - | - |
| 1788362946 | 22.78° C | 41% | 0 hPa | 0 mm | - | - | - |
| 1788362646 | 22.22° C | 42% | 0 hPa | 0 mm | - | - | - |
| 1788362346 | 21.11° C | 54% | 0 hPa | 0 mm | - | - | - |
| 1788362045 | 20.56° C | 55% | 0 hPa | 0 mm | - | - | - |
| 1788361748 | 20° C | 60% | 0 hPa | 0 mm | - | - | - |
| 1788361445 | 18.89° C | 63% | 0 hPa | 0 mm | - | - | - |
* Rain latest hour (hover to see other rain measurements)
** Current wind speed in m/s (hover to see current wind gust speed)